This is the latest recevied weather packets stored in our database for station/object AK4NG. If no packets are shown the sender has not sent any weather packets the latest 10 day(s).
| Time | Temp. | Humidity | Pressure | Rain* | Wind** | Luminosity | Snow |
|---|---|---|---|---|---|---|---|
| 1777500388 | 26.11° C | 74% | 1012.1 hPa | 0 mm | - | 61 W/m² | - |
| 1777500084 | 26.11° C | 74% | 1011.9 hPa | 0 mm | - | 68 W/m² | - |
| 1777499781 | 26.11° C | 73% | 1011.9 hPa | 0 mm | - | 87 W/m² | - |
| 1777499477 | 26.11° C | 73% | 1012.1 hPa | 0 mm | - | 98 W/m² | - |
| 1777499176 | 26.11° C | 70% | 1012.3 hPa | 0 mm | - | 95 W/m² | - |
| 1777498872 | 26.11° C | 71% | 1012.2 hPa | 0 mm | - | 103 W/m² | - |
| 1777498569 | 26.11° C | 70% | 1012.2 hPa | 0 mm | - | 98 W/m² | - |
| 1777498264 | 26.11° C | 70% | 1012.2 hPa | 0 mm | - | 99 W/m² | - |
| 1777497963 | 26.11° C | 69% | 1012.2 hPa | 0 mm | - | 87 W/m² | - |
| 1777497659 | 26.67° C | 69% | 1012.2 hPa | 0 mm | - | 79 W/m² | - |
| 1777497355 | 26.67° C | 68% | 1012.4 hPa | 0 mm | - | 80 W/m² | - |
| 1777497051 | 26.67° C | 68% | 1012.2 hPa | 0 mm | - | 100 W/m² | - |
| 1777496748 | 26.67° C | 68% | 1012.4 hPa | 0 mm | - | 141 W/m² | - |
| 1777496445 | 27.22° C | 66% | 1012.4 hPa | 0 mm | - | 155 W/m² | - |
| 1777496142 | 27.22° C | 66% | 1012.5 hPa | 0 mm | - | 194 W/m² | - |
| 1777495837 | 27.22° C | 65% | 1012.3 hPa | 0 mm | - | 275 W/m² | - |
| 1777495534 | 27.22° C | 65% | 1012.4 hPa | 0 mm | - | 242 W/m² | - |
| 1777495229 | 27.78° C | 63% | 1012.3 hPa | 0 mm | - | 204 W/m² | - |
| 1777494927 | 27.78° C | 64% | 1012.3 hPa | 0 mm | - | 461 W/m² | - |
| 1777494624 | 27.22° C | 63% | 1012.5 hPa | 0 mm | - | 342 W/m² | - |
| 1777494322 | 27.78° C | 63% | 1012.7 hPa | 0 mm | - | 401 W/m² | - |
| 1777494018 | 27.22° C | 64% | 1012.7 hPa | 0 mm | - | 257 W/m² | - |
| 1777493716 | 27.22° C | 64% | 1012.9 hPa | 0 mm | - | 428 W/m² | - |
| 1777493414 | 27.22° C | 67% | 1013 hPa | 0 mm | - | 229 W/m² | - |
| 1777493109 | 27.22° C | 64% | 1012.8 hPa | 0 mm | - | 196 W/m² | - |
* Rain latest hour (hover to see other rain measurements)
** Current wind speed in m/s (hover to see current wind gust speed)